Location: Ostrava
(49.8330°N, 18.2830°E)
Time: 23:58:50
(UTC+02:00)

Explorer 7 - Visible Passes

Search period start: 04 August 2015 00:00
Search period end: 14 August 2015 00:00
Orbit: 488 x 693 km, 50.3° (Epoch: 04 August)

Date Brightness Start Highest point End Pass type
(mag) Time Alt. Az. Time Alt. Az. Time Alt. Az.
04 Aug 8.9 00:08:36 10° W 00:11:14 21° WSW 00:11:14 21° WSW visible
04 Aug 7.3 20:54:10 10° W 20:58:57 88° N 21:03:56 10° E visible
04 Aug 7.6 22:34:57 10° WNW 22:39:40 48° SSW 22:41:36 31° SSE visible
05 Aug 9.4 00:16:53 10° W 00:18:04 13° WSW 00:18:04 13° WSW visible
05 Aug 7.3 21:01:46 10° W 21:06:33 82° SSW 21:11:33 10° ESE visible
05 Aug 8.1 22:42:39 10° W 22:47:07 36° SSW 22:48:29 30° S visible
06 Aug 7.3 21:09:22 10° WNW 21:14:08 68° SSW 21:18:58 11° ESE visible
06 Aug 8.5 22:50:29 10° W 22:54:30 25° SW 22:55:26 24° SSW visible
07 Aug 7.6 21:16:58 10° WNW 21:21:39 53° SSW 21:25:57 13° SE visible
07 Aug 9.0 22:58:34 10° W 23:01:50 18° SW 23:02:25 17° SW visible
08 Aug 8.0 21:24:38 10° W 21:29:07 40° SSW 21:32:59 14° SSE visible
08 Aug 9.5 23:07:33 10° WSW 23:09:06 11° SW 23:09:27 11° SW visible
09 Aug 8.5 21:32:23 10° W 21:36:31 29° SW 21:40:05 13° SSE visible
10 Aug 9.1 21:40:20 10° W 21:43:51 20° SW 21:47:14 10° S visible
11 Aug 9.5 21:48:49 10° WSW 21:51:08 13° SW 21:53:19 10° SSW visible
